Darstellungsparameter: Aktuell verwendete Einstellungen:
Skalierung der Graphiken ... ?
xyx+y,   Skalierungsfaktor:      Skalierung: Modus: x, Faktor: 1
Darstellungszeitraum ... ?
Vom - - bis: - -   Zeitraum: 23.03.2010 - 29.03.2010
Min/Max/Avg-Anzeige ... ?
Zeige MMA aktuell
Zeige MMA Monat
Zeige MMA alles
Zeige --A aktuell
Zeige --A Monat
Zeige --A alles
Keine MMA-Anzeige
MMA:
Average (ber die Originaldaten)
MMA-Basis: 23.02.2003 - 30.09.2020
Quicknavigation für Darstellung... ?
Tage:      1T, 2T, 3T, 5T -1T -2T -3T -5T +1T +2T +3T +5T
Wochen: 1W, 2W, 3W -1W -2W -3W +1W +2W +3W
Monate: 1M, 3M, 6M -1M -3M -6M +1M +3M +6M
Jahre:    1J, 3J, 5J, 10J -1J -3J -5J -10J +1J +3J +5J +10J
Nutze für die Darstellung ... ?
Originaldaten oder Mittelwerte auf ...
Stundenbasis Tagesbasis Wochenbasis
Monatsbasis Jahresbasis      Datenbasis: Original-Daten
Darstellen als:
Statistik (Auto) Statistik J:M      Darstellung:
Zur Graphik,    zurück zur Übersicht aller Sensoren.
 
Tabellarische Datenbersicht: ?
 
Sensor: Nr:Datum:Temp:Abs-Feuchte:Windchill:Wind:
Aussen-T/F 1 23-03-2010 00:06:03 5.2 C 5.78 g/m*3 5.2 C 0 km/h
2 23-03-2010 00:18:03 5 C 5.78 g/m*3 5 C 0 km/h
3 23-03-2010 00:30:03 5 C 5.78 g/m*3 5 C 0 km/h
4 23-03-2010 00:42:03 4.8 C 5.83 g/m*3 4.8 C 0 km/h
5 23-03-2010 00:54:03 4.6 C 5.76 g/m*3 4.6 C 0 km/h
6 23-03-2010 01:06:03 4.4 C 5.68 g/m*3 4.4 C 0 km/h
7 23-03-2010 01:18:03 4.3 C 5.64 g/m*3 4.3 C 0 km/h
8 23-03-2010 01:30:03 4.3 C 5.71 g/m*3 4.3 C 0 km/h
9 23-03-2010 01:42:03 4.2 C 5.67 g/m*3 4.2 C 0 km/h
10 23-03-2010 01:54:03 4.1 C 5.63 g/m*3 4.1 C 0 km/h
11 23-03-2010 02:06:03 4 C 5.59 g/m*3 4 C 0 km/h
12 23-03-2010 02:18:03 3.9 C 5.62 g/m*3 3.9 C 0 km/h
13 23-03-2010 02:30:03 3.7 C 5.55 g/m*3 3.7 C 0 km/h
14 23-03-2010 02:42:03 3.6 C 5.57 g/m*3 3.6 C 0 km/h
15 23-03-2010 02:54:03 3.5 C 5.53 g/m*3 3.5 C 0 km/h
16 23-03-2010 03:06:03 3.4 C 5.56 g/m*3 3.4 C 0 km/h
17 23-03-2010 03:18:04 3.3 C 5.52 g/m*3 3.3 C 0 km/h
18 23-03-2010 03:30:04 3.2 C 5.48 g/m*3 3.2 C 0 km/h
19 23-03-2010 03:42:04 3.1 C 5.45 g/m*3 3.1 C 0 km/h
20 23-03-2010 03:54:04 2.9 C 5.43 g/m*3 2.9 C 0 km/h
21 23-03-2010 04:06:04 2.9 C 5.43 g/m*3 2.9 C 0 km/h
22 23-03-2010 04:18:04 2.7 C 5.3 g/m*3 2.7 C 0 km/h
23 23-03-2010 04:30:04 2.6 C 5.27 g/m*3 2.6 C 0 km/h
24 23-03-2010 04:42:04 2.5 C 5.29 g/m*3 2.5 C 0 km/h
25 23-03-2010 04:54:04 2.4 C 5.25 g/m*3 2.4 C 0 km/h
Sensor: Nr:Datum:Temp:Abs-Feuchte:Windchill:Wind:
Aussen-T/F 26 23-03-2010 05:06:04 2.4 C 5.25 g/m*3 2.4 C 0 km/h
27 23-03-2010 05:18:04 2.4 C 5.25 g/m*3 2.4 C 0 km/h
28 23-03-2010 05:30:04 2.3 C 5.22 g/m*3 2.3 C 0 km/h
29 23-03-2010 05:42:04 2.2 C 5.24 g/m*3 2.2 C 0 km/h
30 23-03-2010 05:54:04 2.1 C 5.2 g/m*3 2.1 C 0 km/h
31 23-03-2010 06:06:04 2.1 C 5.2 g/m*3 2.1 C 0 km/h
32 23-03-2010 06:18:04 2.1 C 5.2 g/m*3 2.1 C 0 km/h
33 23-03-2010 06:30:04 2.2 C 5.24 g/m*3 2.2 C 0 km/h
34 23-03-2010 06:42:04 2.4 C 5.31 g/m*3 2.4 C 0 km/h
35 23-03-2010 06:54:04 2.7 C 5.48 g/m*3 2.7 C 0 km/h
36 23-03-2010 07:06:02 2.7 C 5.48 g/m*3 2.7 C 0 km/h
37 23-03-2010 07:18:02 2.6 C 5.44 g/m*3 2.6 C 0 km/h
38 23-03-2010 07:30:02 2.7 C 5.48 g/m*3 2.7 C 0 km/h
39 23-03-2010 07:42:02 2.9 C 5.55 g/m*3 2.9 C 0 km/h
40 23-03-2010 07:54:02 3.4 C 5.74 g/m*3 3.4 C 0 km/h
41 23-03-2010 08:06:02 3.6 C 5.82 g/m*3 3.6 C 0 km/h
42 23-03-2010 08:18:01 3.8 C 5.83 g/m*3 3.8 C 0 km/h
43 23-03-2010 08:30:01 3.9 C 5.87 g/m*3 3.9 C 0 km/h
44 23-03-2010 08:42:02 4.1 C 5.95 g/m*3 4.1 C 0 km/h
45 23-03-2010 08:54:02 4.4 C 6.07 g/m*3 4.4 C 0 km/h
46 23-03-2010 09:06:01 4.8 C 6.24 g/m*3 4.8 C 0 km/h
47 23-03-2010 09:18:02 5.3 C 6.45 g/m*3 5.3 C 0 km/h
48 23-03-2010 09:30:02 5.9 C 6.71 g/m*3 5.9 C 0 km/h
49 23-03-2010 09:42:01 6.7 C 6.99 g/m*3 6.7 C 0 km/h
50 23-03-2010 09:54:03 7.3 C 6.95 g/m*3 7.3 C 0 km/h
Sensor: Nr:Datum:Temp:Abs-Feuchte:Windchill:Wind:
Aussen-T/F 51 23-03-2010 10:06:02 7.9 C 7.06 g/m*3 7.9 C 0 km/h
52 23-03-2010 10:18:02 8.4 C 6.96 g/m*3 8.4 C 0 km/h
53 23-03-2010 10:30:03 8.9 C 6.75 g/m*3 8.9 C 0 km/h
54 23-03-2010 10:42:02 9.3 C 6.56 g/m*3 9.3 C 0 km/h
55 23-03-2010 10:54:02 9.8 C 6.59 g/m*3 9.8 C 0 km/h
56 23-03-2010 11:06:01 10.3 C 6.61 g/m*3 10.3 C 0 km/h
57 23-03-2010 11:18:02 11.2 C 6.49 g/m*3 11.2 C 0 km/h
58 23-03-2010 11:30:02 11.8 C 6.42 g/m*3 11.8 C 0 km/h
59 23-03-2010 11:42:02 12.3 C 6.08 g/m*3 12.3 C 0 km/h
60 23-03-2010 11:54:02 12.8 C 5.94 g/m*3 12.8 C 0 km/h
61 23-03-2010 12:06:01 13.3 C 5.89 g/m*3 13.3 C 0 km/h
62 23-03-2010 12:18:01 13.7 C 5.92 g/m*3 13.7 C 0 km/h
63 23-03-2010 12:30:01 14 C 5.67 g/m*3 14 C 0 km/h
64 23-03-2010 12:42:02 13.9 C 5.87 g/m*3 13.9 C 0 km/h
65 23-03-2010 12:54:02 14.4 C 5.56 g/m*3 14.4 C 0 km/h
66 23-03-2010 13:06:02 14.9 C 5.23 g/m*3 14.9 C 0 km/h
67 23-03-2010 13:18:02 15 C 5.13 g/m*3 15 C 0 km/h
68 23-03-2010 13:30:02 15.6 C 5.59 g/m*3 15.6 C 0 km/h
69 23-03-2010 13:42:02 16.1 C 5.35 g/m*3 16.1 C 0 km/h
70 23-03-2010 13:54:01 16 C 5.31 g/m*3 16 C 0 km/h
71 23-03-2010 14:06:02 16.4 C 5.44 g/m*3 16.4 C 0 km/h
72 23-03-2010 14:18:01 16.8 C 5.43 g/m*3 16.8 C 0 km/h
73 23-03-2010 14:30:01 16.9 C 5.32 g/m*3 16.9 C 0 km/h
74 23-03-2010 14:42:01 17.2 C 5.27 g/m*3 17.2 C 0 km/h
75 23-03-2010 14:54:02 16.6 C 5.09 g/m*3 16.6 C 0 km/h
Sensor: Nr:Datum:Temp:Abs-Feuchte:Windchill:Wind:
Aussen-T/F 76 23-03-2010 15:06:02 17.1 C 5.24 g/m*3 17.1 C 0 km/h
77 23-03-2010 15:18:01 17.3 C 5.01 g/m*3 17.3 C 0 km/h
78 23-03-2010 15:30:01 17.2 C 5.13 g/m*3 17.2 C 0 km/h
79 23-03-2010 15:42:02 17.1 C 4.8 g/m*3 17.1 C 0 km/h
80 23-03-2010 15:54:02 17.4 C 5.19 g/m*3 17.4 C 0 km/h
81 23-03-2010 16:06:02 17.3 C 5.16 g/m*3 17.3 C 0 km/h
82 23-03-2010 16:18:01 16.7 C 5.12 g/m*3 16.7 C 0 km/h
83 23-03-2010 16:30:01 16.3 C 5.13 g/m*3 16.3 C 0 km/h
84 23-03-2010 16:42:02 16.3 C 5.13 g/m*3 16.3 C 0 km/h
85 23-03-2010 16:54:02 16.1 C 5.35 g/m*3 16.1 C 0 km/h
86 23-03-2010 17:06:02 16.2 C 5.38 g/m*3 16.2 C 0 km/h
87 23-03-2010 17:18:01 16.5 C 5.34 g/m*3 16.5 C 0 km/h
88 23-03-2010 17:30:01 15.8 C 5.38 g/m*3 15.8 C 0 km/h
89 23-03-2010 17:42:02 15.2 C 5.32 g/m*3 15.2 C 0 km/h
90 23-03-2010 17:54:02 14.8 C 5.45 g/m*3 14.8 C 0 km/h
91 23-03-2010 18:06:02 14.6 C 5.63 g/m*3 14.6 C 0 km/h
92 23-03-2010 18:18:02 14.2 C 5.62 g/m*3 14.2 C 0 km/h
93 23-03-2010 18:30:02 13.9 C 5.87 g/m*3 13.9 C 0 km/h
94 23-03-2010 18:42:02 13.5 C 6.08 g/m*3 13.5 C 0 km/h
95 23-03-2010 18:54:01 12.8 C 6.27 g/m*3 12.8 C 0 km/h
96 23-03-2010 19:06:02 12.1 C 6.22 g/m*3 12.1 C 0 km/h
97 23-03-2010 19:18:02 11.7 C 6.28 g/m*3 11.7 C 0 km/h
98 23-03-2010 19:30:02 11.4 C 6.26 g/m*3 11.4 C 0 km/h
99 23-03-2010 19:42:02 11.2 C 6.18 g/m*3 11.2 C 0 km/h
100 23-03-2010 19:54:02 10.8 C 6.23 g/m*3 10.8 C 0 km/h
Sensor: Nr:Datum:Temp:Abs-Feuchte:Windchill:Wind:
Aussen-T/F 101 23-03-2010 20:06:01 10.6 C 6.15 g/m*3 10.6 C 0 km/h
102 23-03-2010 20:18:02 10.4 C 6.17 g/m*3 10.4 C 0 km/h
103 23-03-2010 20:30:02 10.4 C 6.07 g/m*3 10.4 C 0 km/h
104 23-03-2010 20:42:01 10.3 C 6.03 g/m*3 10.3 C 0 km/h
105 23-03-2010 20:54:02 10.2 C 6.09 g/m*3 10.2 C 0 km/h
106 23-03-2010 21:06:01 10 C 6.11 g/m*3 10 C 0 km/h
107 23-03-2010 21:18:01 9.8 C 6.12 g/m*3 9.8 C 0 km/h
108 23-03-2010 21:30:01 9.6 C 6.23 g/m*3 9.6 C 0 km/h
109 23-03-2010 21:42:01 9.5 C 6.28 g/m*3 9.5 C 0 km/h
110 23-03-2010 21:54:02 9.4 C 6.24 g/m*3 9.4 C 0 km/h
111 23-03-2010 22:06:02 9.2 C 6.25 g/m*3 9.2 C 0 km/h
112 23-03-2010 22:18:02 9 C 6.26 g/m*3 9 C 0 km/h
113 23-03-2010 22:30:02 8.7 C 6.23 g/m*3 8.7 C 0 km/h
114 23-03-2010 22:42:02 8.6 C 6.27 g/m*3 8.6 C 0 km/h
115 23-03-2010 22:54:02 8.5 C 6.32 g/m*3 8.5 C 0 km/h
116 23-03-2010 23:06:02 8.4 C 6.28 g/m*3 8.4 C 0 km/h
117 23-03-2010 23:18:02 8.3 C 6.24 g/m*3 8.3 C 0 km/h
118 23-03-2010 23:30:02 8.2 C 6.2 g/m*3 8.2 C 0 km/h
119 23-03-2010 23:42:02 8.1 C 6.24 g/m*3 8.1 C 0 km/h
120 23-03-2010 23:54:01 8 C 6.2 g/m*3 8 C 0 km/h
121 24-03-2010 00:06:01 7.9 C 6.24 g/m*3 7.9 C 0 km/h
122 24-03-2010 00:18:01 7.8 C 6.28 g/m*3 7.8 C 0 km/h
123 24-03-2010 00:30:01 7.7 C 6.24 g/m*3 7.7 C 0 km/h
124 24-03-2010 00:42:02 7.6 C 6.2 g/m*3 7.6 C 0 km/h
125 24-03-2010 00:54:01 7.5 C 6.16 g/m*3 7.5 C 0 km/h
Sensor: Nr:Datum:Temp:Abs-Feuchte:Windchill:Wind:
Aussen-T/F 126 24-03-2010 01:06:02 7.5 C 6.24 g/m*3 7.5 C 0 km/h
127 24-03-2010 01:18:01 7.5 C 6.24 g/m*3 7.5 C 0 km/h
128 24-03-2010 01:30:01 7.3 C 6.16 g/m*3 7.3 C 0 km/h
129 24-03-2010 01:42:02 7.1 C 6.08 g/m*3 7.1 C 0 km/h
130 24-03-2010 01:54:02 6.9 C 6.08 g/m*3 6.9 C 0 km/h
131 24-03-2010 02:06:02 6.8 C 6.12 g/m*3 6.8 C 0 km/h
132 24-03-2010 02:18:01 6.7 C 6.15 g/m*3 6.7 C 0 km/h
133 24-03-2010 02:30:01 6.6 C 6.11 g/m*3 6.6 C 0 km/h
134 24-03-2010 02:42:02 6.4 C 6.04 g/m*3 6.4 C 0 km/h
135 24-03-2010 02:55:04 6.2 C 5.96 g/m*3 6.2 C 0 km/h
136 24-03-2010 03:07:04 6.2 C 6.03 g/m*3 6.2 C 0 km/h
137 24-03-2010 03:19:04 6.1 C 5.99 g/m*3 6.1 C 0 km/h
138 24-03-2010 03:31:02 5.8 C 5.95 g/m*3 5.8 C 0 km/h
139 24-03-2010 03:43:02 5.6 C 5.87 g/m*3 5.6 C 0 km/h
140 24-03-2010 03:55:02 5.7 C 5.98 g/m*3 5.7 C 0 km/h
141 24-03-2010 04:07:03 5.6 C 5.94 g/m*3 5.6 C 0 km/h
142 24-03-2010 04:19:02 5.3 C 5.82 g/m*3 5.3 C 0 km/h
143 24-03-2010 04:31:02 5.3 C 5.82 g/m*3 5.3 C 0 km/h
144 24-03-2010 04:43:02 5.2 C 5.85 g/m*3 5.2 C 0 km/h
145 24-03-2010 04:55:01 5.1 C 5.81 g/m*3 5.1 C 0 km/h
146 24-03-2010 05:07:02 4.9 C 5.81 g/m*3 4.9 C 0 km/h
147 24-03-2010 05:19:01 5 C 5.84 g/m*3 5 C 0 km/h
148 24-03-2010 05:31:01 5 C 5.84 g/m*3 5 C 0 km/h
149 24-03-2010 05:43:01 4.7 C 5.8 g/m*3 4.7 C 0 km/h
150 24-03-2010 05:55:01 4.5 C 5.72 g/m*3 4.5 C 0 km/h
Sensor: Nr:Datum:Temp:Abs-Feuchte:Windchill:Wind:
Aussen-T/F 151 24-03-2010 06:07:02 4.4 C 5.68 g/m*3 4.4 C 0 km/h
152 24-03-2010 06:19:01 4.4 C 5.68 g/m*3 4.4 C 0 km/h
153 24-03-2010 06:31:01 4.4 C 5.75 g/m*3 4.4 C 0 km/h
154 24-03-2010 06:43:01 4.3 C 5.71 g/m*3 4.3 C 0 km/h
155 24-03-2010 06:55:01 4.3 C 5.71 g/m*3 4.3 C 0 km/h
156 24-03-2010 07:07:01 4.4 C 5.81 g/m*3 4.4 C 0 km/h
157 24-03-2010 07:19:02 4.4 C 5.81 g/m*3 4.4 C 0 km/h
158 24-03-2010 07:31:01 4.6 C 5.89 g/m*3 4.6 C 0 km/h
159 24-03-2010 07:43:01 4.9 C 6.01 g/m*3 4.9 C 0 km/h
160 24-03-2010 07:55:03 5.2 C 6.06 g/m*3 5.2 C 0 km/h
161 24-03-2010 08:07:02 5.3 C 6.1 g/m*3 5.3 C 0 km/h
162 24-03-2010 08:19:02 5.4 C 6.07 g/m*3 5.4 C 0 km/h
163 24-03-2010 08:31:02 5.7 C 6.19 g/m*3 5.7 C 0 km/h
164 24-03-2010 08:43:02 5.7 C 6.12 g/m*3 5.7 C 0 km/h
165 24-03-2010 08:55:02 5.8 C 6.16 g/m*3 5.8 C 0 km/h
166 24-03-2010 09:07:01 6.1 C 6.21 g/m*3 6.1 C 0 km/h
167 24-03-2010 09:19:02 6.7 C 6.46 g/m*3 6.7 C 0 km/h
168 24-03-2010 09:31:01 7.2 C 6.44 g/m*3 7.2 C 0 km/h
169 24-03-2010 09:43:01 7.8 C 6.69 g/m*3 7.8 C 0 km/h
170 24-03-2010 09:55:02 8.4 C 6.53 g/m*3 8.4 C 0 km/h
171 24-03-2010 10:07:01 9.2 C 6.79 g/m*3 9.2 C 0 km/h
172 24-03-2010 10:19:01 10.2 C 6.95 g/m*3 10.2 C 0 km/h
173 24-03-2010 10:31:02 10.9 C 6.76 g/m*3 10.9 C 0 km/h
174 24-03-2010 10:43:02 11.7 C 6.48 g/m*3 11.7 C 0 km/h
175 24-03-2010 10:55:02 12.7 C 6.46 g/m*3 12.7 C 0 km/h
Sensor: Nr:Datum:Temp:Abs-Feuchte:Windchill:Wind:
Aussen-T/F 176 24-03-2010 11:07:01 13.1 C 5.71 g/m*3 13.1 C 0 km/h
177 24-03-2010 11:19:02 13.8 C 5.6 g/m*3 13.8 C 0 km/h
178 24-03-2010 11:31:02 14.4 C 5.44 g/m*3 14.4 C 0 km/h
179 24-03-2010 11:43:02 14.9 C 5.23 g/m*3 14.9 C 0 km/h
180 24-03-2010 11:55:02 15.5 C 5.29 g/m*3 15.5 C 0 km/h
181 24-03-2010 12:07:02 16.1 C 5.21 g/m*3 16.1 C 0 km/h
182 24-03-2010 12:19:02 16.7 C 5.26 g/m*3 16.7 C 0 km/h
183 24-03-2010 12:31:02 17.2 C 5.27 g/m*3 17.2 C 0 km/h
184 24-03-2010 12:43:02 17.6 C 5.1 g/m*3 17.6 C 0 km/h
185 24-03-2010 12:55:02 18.4 C 4.88 g/m*3 18.4 C 0 km/h
186 24-03-2010 13:07:03 18.7 C 4.8 g/m*3 18.7 C 0 km/h
187 24-03-2010 13:19:02 19 C 5.05 g/m*3 19 C 0 km/h
188 24-03-2010 13:31:02 19.5 C 5.2 g/m*3 19.5 C 0 km/h
189 24-03-2010 13:43:02 19.9 C 4.98 g/m*3 19.9 C 0 km/h
190 24-03-2010 13:55:01 20.3 C 4.75 g/m*3 20.3 C 0 km/h
191 24-03-2010 14:07:02 20.8 C 4.71 g/m*3 20.8 C 0 km/h
192 24-03-2010 14:19:01 21.6 C 4.74 g/m*3 21.6 C 0 km/h
193 24-03-2010 14:31:01 21.6 C 4.36 g/m*3 21.6 C 0 km/h
194 24-03-2010 14:43:01 21.5 C 4.34 g/m*3 21.5 C 0 km/h
195 24-03-2010 14:55:01 21.8 C 4.41 g/m*3 21.8 C 0 km/h
196 24-03-2010 15:07:02 22 C 4.27 g/m*3 22 C 0 km/h
197 24-03-2010 15:19:01 22 C 4.27 g/m*3 22 C 0 km/h
198 24-03-2010 15:31:01 22.3 C 4.34 g/m*3 22.3 C 0 km/h
199 24-03-2010 15:43:01 23 C 4.52 g/m*3 23 C 0 km/h
200 24-03-2010 15:55:01 21.9 C 4.44 g/m*3 21.9 C 0 km/h
Sensor: Nr:Datum:Temp:Abs-Feuchte:Windchill:Wind:
Aussen-T/F 201 24-03-2010 16:07:02 21.4 C 4.5 g/m*3 21.4 C 0 km/h
202 24-03-2010 16:19:02 21 C 4.58 g/m*3 21 C 0 km/h
203 24-03-2010 16:31:01 21.1 C 4.79 g/m*3 21.1 C 0 km/h
204 24-03-2010 16:43:01 20.3 C 4.92 g/m*3 20.3 C 0 km/h
205 24-03-2010 16:55:01 20.4 C 5.13 g/m*3 20.4 C 0 km/h
206 24-03-2010 17:07:01 20.4 C 5.31 g/m*3 20.4 C 0 km/h
207 24-03-2010 17:19:02 20 C 5.18 g/m*3 20 C 0 km/h
208 24-03-2010 17:31:01 19.8 C 5.47 g/m*3 19.8 C 0 km/h
209 24-03-2010 17:43:01 19.5 C 5.37 g/m*3 19.5 C 0 km/h
210 24-03-2010 17:55:02 19.1 C 5.08 g/m*3 19.1 C 0 km/h
211 24-03-2010 18:07:01 18.5 C 5.22 g/m*3 18.5 C 0 km/h
212 24-03-2010 18:19:02 17.9 C 5.65 g/m*3 17.9 C 0 km/h
213 24-03-2010 18:31:01 17.4 C 5.48 g/m*3 17.4 C 0 km/h
214 24-03-2010 18:43:01 16.5 C 5.62 g/m*3 16.5 C 0 km/h
215 24-03-2010 18:55:02 15.8 C 5.38 g/m*3 15.8 C 0 km/h
216 24-03-2010 19:07:02 15.4 C 5.52 g/m*3 15.4 C 0 km/h
217 24-03-2010 19:19:02 15 C 5.51 g/m*3 15 C 0 km/h
218 24-03-2010 19:31:03 14.5 C 5.6 g/m*3 14.5 C 0 km/h
219 24-03-2010 19:43:03 14.4 C 5.56 g/m*3 14.4 C 0 km/h
220 24-03-2010 19:55:02 14.2 C 5.49 g/m*3 14.2 C 0 km/h
221 24-03-2010 20:07:01 14 C 5.67 g/m*3 14 C 0 km/h
222 24-03-2010 20:19:02 14 C 5.55 g/m*3 14 C 0 km/h
223 24-03-2010 20:31:02 13.8 C 5.48 g/m*3 13.8 C 0 km/h
224 24-03-2010 20:43:02 13.8 C 5.6 g/m*3 13.8 C 0 km/h
225 24-03-2010 20:55:02 13.4 C 5.58 g/m*3 13.4 C 0 km/h
Sensor: Nr:Datum:Temp:Abs-Feuchte:Windchill:Wind:
Aussen-T/F 226 24-03-2010 21:07:01 13.4 C 5.58 g/m*3 13.4 C 0 km/h
227 24-03-2010 21:19:01 13.2 C 5.51 g/m*3 13.2 C 0 km/h
228 24-03-2010 21:31:02 13.1 C 5.59 g/m*3 13.1 C 0 km/h
229 24-03-2010 21:43:02 12.9 C 5.75 g/m*3 12.9 C 0 km/h
230 24-03-2010 21:55:02 12.8 C 5.71 g/m*3 12.8 C 0 km/h
231 24-03-2010 22:07:02 12.4 C 5.68 g/m*3 12.4 C 0 km/h
232 24-03-2010 22:19:02 12.7 C 5.68 g/m*3 12.7 C 0 km/h
233 24-03-2010 22:31:02 12.6 C 5.64 g/m*3 12.6 C 0 km/h
234 24-03-2010 22:43:02 12.4 C 5.68 g/m*3 12.4 C 0 km/h
235 24-03-2010 22:55:02 12 C 5.86 g/m*3 12 C 0 km/h
236 24-03-2010 23:07:02 11.7 C 6.07 g/m*3 11.7 C 0 km/h
237 24-03-2010 23:19:02 11.4 C 5.95 g/m*3 11.4 C 0 km/h
238 24-03-2010 23:31:02 10.9 C 6.07 g/m*3 10.9 C 0 km/h
239 24-03-2010 23:43:02 10.8 C 6.13 g/m*3 10.8 C 0 km/h
240 24-03-2010 23:55:02 10.6 C 6.15 g/m*3 10.6 C 0 km/h
241 25-03-2010 00:07:02 10.6 C 6.25 g/m*3 10.6 C 0 km/h
242 25-03-2010 00:19:02 10.5 C 6.21 g/m*3 10.5 C 0 km/h
243 25-03-2010 00:31:02 10.4 C 6.07 g/m*3 10.4 C 0 km/h
244 25-03-2010 00:43:02 10.1 C 6.05 g/m*3 10.1 C 0 km/h
245 25-03-2010 00:55:01 9.7 C 6.08 g/m*3 9.7 C 0 km/h
246 25-03-2010 01:07:02 9.4 C 6.06 g/m*3 9.4 C 0 km/h
247 25-03-2010 01:19:01 9.3 C 6.11 g/m*3 9.3 C 0 km/h
248 25-03-2010 01:31:01 9.2 C 6.16 g/m*3 9.2 C 0 km/h
249 25-03-2010 01:43:01 9 C 6.08 g/m*3 9 C 0 km/h
250 25-03-2010 01:55:01 8.9 C 6.13 g/m*3 8.9 C 0 km/h
Sensor: Nr:Datum:Temp:Abs-Feuchte:Windchill:Wind:
Aussen-T/F 251 25-03-2010 02:07:02 8.9 C 6.22 g/m*3 8.9 C 0 km/h
252 25-03-2010 02:19:02 8.8 C 6.18 g/m*3 8.8 C 0 km/h
253 25-03-2010 02:31:01 8.6 C 6.19 g/m*3 8.6 C 0 km/h
254 25-03-2010 02:43:01 8.7 C 6.23 g/m*3 8.7 C 0 km/h
255 25-03-2010 02:55:01 8.6 C 6.27 g/m*3 8.6 C 0 km/h
256 25-03-2010 03:07:01 8.7 C 6.31 g/m*3 8.7 C 0 km/h
257 25-03-2010 03:19:01 8.6 C 6.27 g/m*3 8.6 C 0 km/h
258 25-03-2010 03:31:01 8.4 C 6.28 g/m*3 8.4 C 0 km/h
259 25-03-2010 03:43:01 8.1 C 6.16 g/m*3 8.1 C 0 km/h
260 25-03-2010 03:55:01 7.9 C 6.24 g/m*3 7.9 C 0 km/h
261 25-03-2010 04:07:02 7.7 C 6.24 g/m*3 7.7 C 0 km/h
262 25-03-2010 04:19:01 7.6 C 6.28 g/m*3 7.6 C 0 km/h
263 25-03-2010 04:31:01 7.7 C 6.32 g/m*3 7.7 C 0 km/h
264 25-03-2010 04:43:01 7.9 C 6.49 g/m*3 7.9 C 0 km/h
265 25-03-2010 04:55:01 7.8 C 6.45 g/m*3 7.8 C 0 km/h
266 25-03-2010 05:07:01 7.6 C 6.44 g/m*3 7.6 C 0 km/h
267 25-03-2010 05:19:01 7.5 C 6.4 g/m*3 7.5 C 0 km/h
268 25-03-2010 05:31:01 7.3 C 6.4 g/m*3 7.3 C 0 km/h
269 25-03-2010 05:43:01 7.2 C 6.36 g/m*3 7.2 C 0 km/h
270 25-03-2010 05:55:01 7.2 C 6.36 g/m*3 7.2 C 0 km/h
271 25-03-2010 06:07:01 7.3 C 6.48 g/m*3 7.3 C 0 km/h
272 25-03-2010 06:19:02 7.4 C 6.44 g/m*3 7.4 C 0 km/h
273 25-03-2010 06:31:01 7.4 C 6.44 g/m*3 7.4 C 0 km/h
274 25-03-2010 06:43:01 7.5 C 6.48 g/m*3 7.5 C 0 km/h
275 25-03-2010 06:55:01 7.6 C 6.53 g/m*3 7.6 C 0 km/h
Sensor: Nr:Datum:Temp:Abs-Feuchte:Windchill:Wind:
Aussen-T/F 276 25-03-2010 07:07:01 7.8 C 6.53 g/m*3 7.8 C 0 km/h
277 25-03-2010 07:19:02 7.9 C 6.57 g/m*3 7.9 C 0 km/h
278 25-03-2010 07:31:01 7.6 C 6.61 g/m*3 7.6 C 0 km/h
279 25-03-2010 07:43:01 7.9 C 6.9 g/m*3 7.9 C 0 km/h
280 25-03-2010 07:55:02 8.2 C 6.95 g/m*3 8.2 C 0 km/h
281 25-03-2010 08:07:01 8.2 C 6.87 g/m*3 8.2 C 0 km/h
282 25-03-2010 08:19:02 8.1 C 6.82 g/m*3 8.1 C 0 km/h
283 25-03-2010 08:31:01 8.2 C 6.95 g/m*3 8.2 C 0 km/h
284 25-03-2010 08:43:01 8.4 C 7.04 g/m*3 8.4 C 0 km/h
285 25-03-2010 08:55:02 8.8 C 7.22 g/m*3 8.8 C 0 km/h
286 25-03-2010 09:07:01 9.5 C 7.46 g/m*3 9.5 C 0 km/h
287 25-03-2010 09:19:01 10.4 C 7.61 g/m*3 10.4 C 0 km/h
288 25-03-2010 09:31:02 11 C 7.31 g/m*3 11 C 0 km/h
289 25-03-2010 09:43:02 11.5 C 7.33 g/m*3 11.5 C 0 km/h
290 25-03-2010 09:55:02 11.9 C 7.31 g/m*3 11.9 C 0 km/h
291 25-03-2010 10:07:01 12.4 C 7.21 g/m*3 12.4 C 0 km/h
292 25-03-2010 10:19:01 12.6 C 7.08 g/m*3 12.6 C 0 km/h
293 25-03-2010 10:31:02 13.1 C 7.3 g/m*3 13.1 C 0 km/h
294 25-03-2010 10:43:02 14.1 C 7.4 g/m*3 14.1 C 0 km/h
295 25-03-2010 10:55:01 14.7 C 7.05 g/m*3 14.7 C 0 km/h
296 25-03-2010 11:07:02 15.7 C 6.69 g/m*3 15.7 C 0 km/h
297 25-03-2010 11:19:01 16.8 C 6.43 g/m*3 16.8 C 0 km/h
298 25-03-2010 11:31:02 17.9 C 5.95 g/m*3 17.9 C 0 km/h
299 25-03-2010 11:43:02 18.5 C 5.85 g/m*3 18.5 C 0 km/h
300 25-03-2010 11:55:01 18.8 C 5.64 g/m*3 18.8 C 0 km/h
Sensor: Nr:Datum:Temp:Abs-Feuchte:Windchill:Wind:
Aussen-T/F 301 25-03-2010 12:07:02 19.5 C 5.2 g/m*3 19.5 C 0 km/h
302 25-03-2010 12:19:01 19.3 C 4.64 g/m*3 19.3 C 0 km/h
303 25-03-2010 12:31:01 20.2 C 4.55 g/m*3 20.2 C 0 km/h
304 25-03-2010 12:43:01 21 C 4.4 g/m*3 21 C 0 km/h
305 25-03-2010 12:55:01 21.6 C 4.55 g/m*3 21.6 C 0 km/h
306 25-03-2010 13:07:02 22 C 4.27 g/m*3 22 C 0 km/h
307 25-03-2010 13:19:01 22.2 C 3.93 g/m*3 22.2 C 0 km/h
308 25-03-2010 13:31:01 22.8 C 4.06 g/m*3 22.8 C 0 km/h
309 25-03-2010 13:43:01 22.7 C 4.04 g/m*3 22.7 C 0 km/h
310 25-03-2010 13:55:01 23.2 C 4.16 g/m*3 23.2 C 0 km/h
311 25-03-2010 14:07:01 22.8 C 4.06 g/m*3 22.8 C 0 km/h
312 25-03-2010 14:19:02 22.9 C 4.09 g/m*3 22.9 C 0 km/h
313 25-03-2010 14:31:01 23.3 C 4.18 g/m*3 23.3 C 0 km/h
314 25-03-2010 14:43:01 23.8 C 4.3 g/m*3 23.8 C 0 km/h
315 25-03-2010 14:55:01 23.7 C 4.28 g/m*3 23.7 C 0 km/h
316 25-03-2010 15:07:01 23.2 C 4.16 g/m*3 23.2 C 0 km/h
317 25-03-2010 15:19:02 22.8 C 4.06 g/m*3 22.8 C 0 km/h
318 25-03-2010 15:31:01 23.4 C 4.21 g/m*3 23.4 C 0 km/h
319 25-03-2010 15:43:01 23.6 C 4.25 g/m*3 23.6 C 0 km/h
320 25-03-2010 15:55:02 23.7 C 4.28 g/m*3 23.7 C 0 km/h
321 25-03-2010 16:07:01 23.6 C 4.25 g/m*3 23.6 C 0 km/h
322 25-03-2010 16:19:02 24.1 C 4.38 g/m*3 24.1 C 0 km/h
323 25-03-2010 16:31:01 23.6 C 4.25 g/m*3 23.6 C 0 km/h
324 25-03-2010 16:43:01 22.8 C 4.06 g/m*3 22.8 C 0 km/h
325 25-03-2010 16:55:02 21.9 C 4.44 g/m*3 21.9 C 0 km/h
Sensor: Nr:Datum:Temp:Abs-Feuchte:Windchill:Wind:
Aussen-T/F 326 25-03-2010 17:07:01 21.5 C 4.71 g/m*3 21.5 C 0 km/h
327 25-03-2010 17:19:01 20.9 C 4.55 g/m*3 20.9 C 0 km/h
328 25-03-2010 17:31:01 20.7 C 4.68 g/m*3 20.7 C 0 km/h
329 25-03-2010 17:43:01 20 C 5.01 g/m*3 20 C 0 km/h
330 25-03-2010 17:55:01 19.5 C 5.37 g/m*3 19.5 C 0 km/h
331 25-03-2010 18:07:02 19.6 C 5.23 g/m*3 19.6 C 0 km/h
332 25-03-2010 18:19:02 19.5 C 5.87 g/m*3 19.5 C 0 km/h
333 25-03-2010 18:31:01 19.3 C 5.31 g/m*3 19.3 C 0 km/h
334 25-03-2010 18:43:01 18.7 C 5.6 g/m*3 18.7 C 0 km/h
335 25-03-2010 18:55:02 18.5 C 5.85 g/m*3 18.5 C 0 km/h
336 25-03-2010 19:07:01 18.3 C 5.79 g/m*3 18.3 C 0 km/h
337 25-03-2010 19:19:02 17.8 C 5.62 g/m*3 17.8 C 0 km/h
338 25-03-2010 19:31:01 17.2 C 5.86 g/m*3 17.2 C 0 km/h
339 25-03-2010 19:43:01 16.8 C 5.86 g/m*3 16.8 C 0 km/h
340 25-03-2010 19:55:02 16.4 C 5.72 g/m*3 16.4 C 0 km/h
341 25-03-2010 20:07:01 16.1 C 5.76 g/m*3 16.1 C 0 km/h
342 25-03-2010 20:19:01 15.8 C 5.79 g/m*3 15.8 C 0 km/h
343 25-03-2010 20:31:02 15.4 C 5.91 g/m*3 15.4 C 0 km/h
344 25-03-2010 20:43:02 15.2 C 5.97 g/m*3 15.2 C 0 km/h
345 25-03-2010 20:55:02 15 C 5.9 g/m*3 15 C 0 km/h
346 25-03-2010 21:07:01 14.9 C 5.99 g/m*3 14.9 C 0 km/h
347 25-03-2010 21:19:01 14.7 C 6.04 g/m*3 14.7 C 0 km/h
348 25-03-2010 21:31:02 14.5 C 6.09 g/m*3 14.5 C 0 km/h
349 25-03-2010 21:43:02 14.1 C 6.07 g/m*3 14.1 C 0 km/h
350 25-03-2010 21:55:01 13.8 C 6.2 g/m*3 13.8 C 0 km/h
Sensor: Nr:Datum:Temp:Abs-Feuchte:Windchill:Wind:
Aussen-T/F 351 25-03-2010 22:07:02 13.6 C 6.24 g/m*3 13.6 C 0 km/h
352 25-03-2010 22:19:01 13.4 C 6.28 g/m*3 13.4 C 0 km/h
353 25-03-2010 22:31:01 13.1 C 6.39 g/m*3 13.1 C 0 km/h
354 25-03-2010 22:43:01 13 C 6.35 g/m*3 13 C 0 km/h
355 25-03-2010 22:55:01 13 C 6.24 g/m*3 13 C 0 km/h
356 25-03-2010 23:07:02 13 C 6.46 g/m*3 13 C 0 km/h
357 25-03-2010 23:19:01 12.6 C 6.31 g/m*3 12.6 C 0 km/h
358 25-03-2010 23:31:02 12.7 C 6.57 g/m*3 12.7 C 0 km/h
359 25-03-2010 23:43:02 12.6 C 6.53 g/m*3 12.6 C 0 km/h
360 25-03-2010 23:55:01 12.5 C 6.6 g/m*3 12.5 C 0 km/h
361 26-03-2010 00:07:02 12.5 C 6.71 g/m*3 12.5 C 0 km/h
362 26-03-2010 00:19:02 12.4 C 6.66 g/m*3 12.4 C 0 km/h
363 26-03-2010 00:31:01 12.4 C 6.66 g/m*3 12.4 C 0 km/h
364 26-03-2010 00:43:01 12.2 C 6.58 g/m*3 12.2 C 0 km/h
365 26-03-2010 00:55:02 12.1 C 6.65 g/m*3 12.1 C 0 km/h
366 26-03-2010 01:07:01 12.3 C 6.62 g/m*3 12.3 C 0 km/h
367 26-03-2010 01:19:02 12.2 C 6.58 g/m*3 12.2 C 0 km/h
368 26-03-2010 01:31:01 12.5 C 6.6 g/m*3 12.5 C 0 km/h
369 26-03-2010 01:43:01 13 C 6.58 g/m*3 13 C 0 km/h
370 26-03-2010 01:55:02 13.8 C 6.55 g/m*3 13.8 C 0 km/h
371 26-03-2010 02:07:01 13.4 C 6.28 g/m*3 13.4 C 0 km/h
372 26-03-2010 02:19:01 12.7 C 6.46 g/m*3 12.7 C 0 km/h
373 26-03-2010 02:31:02 12.4 C 6.66 g/m*3 12.4 C 0 km/h
374 26-03-2010 02:43:02 12.1 C 6.76 g/m*3 12.1 C 0 km/h
375 26-03-2010 02:56:05 12 C 6.82 g/m*3 12 C 0 km/h
Sensor: Nr:Datum:Temp:Abs-Feuchte:Windchill:Wind:
Aussen-T/F 376 26-03-2010 03:08:06 11.6 C 6.76 g/m*3 11.6 C 0 km/h
377 26-03-2010 03:20:05 11.6 C 6.86 g/m*3 11.6 C 0 km/h
378 26-03-2010 03:32:03 11.8 C 6.95 g/m*3 11.8 C 0 km/h
379 26-03-2010 03:44:03 12 C 6.82 g/m*3 12 C 0 km/h
380 26-03-2010 03:56:03 12.1 C 6.86 g/m*3 12.1 C 0 km/h
381 26-03-2010 04:08:02 11.7 C 6.9 g/m*3 11.7 C 0 km/h
382 26-03-2010 04:20:02 11.2 C 6.79 g/m*3 11.2 C 0 km/h
383 26-03-2010 04:32:02 11.2 C 6.99 g/m*3 11.2 C 0 km/h
384 26-03-2010 04:44:02 11.1 C 6.95 g/m*3 11.1 C 0 km/h
385 26-03-2010 04:56:02 11.2 C 6.89 g/m*3 11.2 C 0 km/h
386 26-03-2010 05:08:02 11 C 6.81 g/m*3 11 C 0 km/h
387 26-03-2010 05:20:02 10.9 C 6.86 g/m*3 10.9 C 0 km/h
388 26-03-2010 05:32:01 10.7 C 6.88 g/m*3 10.7 C 0 km/h
389 26-03-2010 05:44:01 10.9 C 6.96 g/m*3 10.9 C 0 km/h
390 26-03-2010 05:56:02 11 C 7.01 g/m*3 11 C 0 km/h
391 26-03-2010 06:08:01 10.8 C 6.92 g/m*3 10.8 C 0 km/h
392 26-03-2010 06:20:02 10.5 C 6.98 g/m*3 10.5 C 0 km/h
393 26-03-2010 06:32:02 10.2 C 6.85 g/m*3 10.2 C 0 km/h
394 26-03-2010 06:44:02 10.2 C 6.95 g/m*3 10.2 C 0 km/h
395 26-03-2010 06:56:02 10.2 C 6.95 g/m*3 10.2 C 0 km/h
396 26-03-2010 07:08:02 10.3 C 6.99 g/m*3 10.3 C 0 km/h
397 26-03-2010 07:20:02 10.6 C 7.22 g/m*3 10.6 C 0 km/h
398 26-03-2010 07:32:02 10.7 C 7.17 g/m*3 10.7 C 0 km/h
399 26-03-2010 07:44:02 10.8 C 7.22 g/m*3 10.8 C 0 km/h
400 26-03-2010 07:56:02 11 C 7.11 g/m*3 11 C 0 km/h
Sensor: Nr:Datum:Temp:Abs-Feuchte:Windchill:Wind:
Aussen-T/F 401 26-03-2010 08:08:02 11.5 C 7.23 g/m*3 11.5 C 0 km/h
402 26-03-2010 08:20:01 11.5 C 7.13 g/m*3 11.5 C 0 km/h
403 26-03-2010 08:32:02 11.7 C 7.22 g/m*3 11.7 C 0 km/h
404 26-03-2010 08:44:02 12.3 C 7.28 g/m*3 12.3 C 0 km/h
405 26-03-2010 08:56:02 12.2 C 7.12 g/m*3 12.2 C 0 km/h
406 26-03-2010 09:08:02 12.4 C 7.21 g/m*3 12.4 C 0 km/h
407 26-03-2010 09:20:02 12.8 C 7.28 g/m*3 12.8 C 0 km/h
408 26-03-2010 09:32:02 13.2 C 7.23 g/m*3 13.2 C 0 km/h
409 26-03-2010 09:44:02 13.7 C 7.22 g/m*3 13.7 C 0 km/h
410 26-03-2010 09:56:02 13.8 C 7.03 g/m*3 13.8 C 0 km/h
411 26-03-2010 10:08:02 13.8 C 7.15 g/m*3 13.8 C 0 km/h
412 26-03-2010 10:20:02 13.8 C 7.03 g/m*3 13.8 C 0 km/h
413 26-03-2010 10:32:02 13.8 C 7.15 g/m*3 13.8 C 0 km/h
414 26-03-2010 10:44:02 13.6 C 6.83 g/m*3 13.6 C 0 km/h
415 26-03-2010 10:56:02 13.3 C 6.82 g/m*3 13.3 C 0 km/h
416 26-03-2010 11:08:02 12.5 C 6.6 g/m*3 12.5 C 0 km/h
417 26-03-2010 11:20:02 12.2 C 6.58 g/m*3 12.2 C 0 km/h
418 26-03-2010 11:32:02 11 C 7.01 g/m*3 11 C 0 km/h
419 26-03-2010 11:44:02 9.9 C 7.28 g/m*3 9.9 C 0 km/h
420 26-03-2010 11:56:01 9 C 6.96 g/m*3 9 C 0 km/h
421 26-03-2010 12:08:01 8.5 C 7.17 g/m*3 8.5 C 0 km/h
422 26-03-2010 12:20:01 8.2 C 7.2 g/m*3 8.2 C 0 km/h
423 26-03-2010 12:32:01 7.9 C 7.23 g/m*3 7.9 C 0 km/h
424 26-03-2010 12:44:01 7.5 C 6.96 g/m*3 7.5 C 0 km/h
425 26-03-2010 12:56:01 7.4 C 7 g/m*3 7.4 C 0 km/h
Sensor: Nr:Datum:Temp:Abs-Feuchte:Windchill:Wind:
Aussen-T/F 426 26-03-2010 13:08:01 7.5 C 7.12 g/m*3 7.5 C 0 km/h
427 26-03-2010 13:20:02 7.4 C 7.08 g/m*3 7.4 C 0 km/h
428 26-03-2010 13:32:01 7.5 C 7.2 g/m*3 7.5 C 0 km/h
429 26-03-2010 13:44:01 7.8 C 7.43 g/m*3 7.8 C 0 km/h
430 26-03-2010 13:56:02 7.7 C 7.38 g/m*3 7.7 C 0 km/h
431 26-03-2010 14:08:02 7.5 C 7.28 g/m*3 7.5 C 0 km/h
432 26-03-2010 14:20:02 7.4 C 7.16 g/m*3 7.4 C 0 km/h
433 26-03-2010 14:32:02 7.5 C 7.2 g/m*3 7.5 C 0 km/h
434 26-03-2010 14:44:02 8.1 C 7.49 g/m*3 8.1 C 0 km/h
435 26-03-2010 14:56:02 8.2 C 7.54 g/m*3 8.2 C 0 km/h
436 26-03-2010 15:08:01 8.1 C 7.41 g/m*3 8.1 C 0 km/h
437 26-03-2010 15:20:01 8.2 C 7.45 g/m*3 8.2 C 0 km/h
438 26-03-2010 15:32:01 8.1 C 7.32 g/m*3 8.1 C 0 km/h
439 26-03-2010 15:44:01 8.3 C 7.42 g/m*3 8.3 C 0 km/h
440 26-03-2010 15:56:02 8.6 C 7.65 g/m*3 8.6 C 0 km/h
441 26-03-2010 16:08:02 8.7 C 7.7 g/m*3 8.7 C 0 km/h
442 26-03-2010 16:20:01 8.5 C 7.51 g/m*3 8.5 C 0 km/h
443 26-03-2010 16:32:01 8.6 C 7.56 g/m*3 8.6 C 0 km/h
444 26-03-2010 16:44:01 8.5 C 7.51 g/m*3 8.5 C 0 km/h
445 26-03-2010 16:56:01 8.4 C 7.38 g/m*3 8.4 C 0 km/h
446 26-03-2010 17:08:02 8.6 C 7.3 g/m*3 8.6 C 0 km/h
447 26-03-2010 17:20:02 8.6 C 7.22 g/m*3 8.6 C 0 km/h
448 26-03-2010 17:32:02 8.6 C 7.22 g/m*3 8.6 C 0 km/h
449 26-03-2010 17:44:02 8.6 C 7.22 g/m*3 8.6 C 0 km/h
450 26-03-2010 17:56:01 8.6 C 7.22 g/m*3 8.6 C 0 km/h
Sensor: Nr:Datum:Temp:Abs-Feuchte:Windchill:Wind:
Aussen-T/F 451 26-03-2010 18:08:02 8.5 C 7.17 g/m*3 8.5 C 0 km/h
452 26-03-2010 18:20:02 8.8 C 7.22 g/m*3 8.8 C 0 km/h
453 26-03-2010 18:32:01 8.7 C 7.01 g/m*3 8.7 C 0 km/h
454 26-03-2010 18:44:01 8.6 C 6.87 g/m*3 8.6 C 0 km/h
455 26-03-2010 18:56:02 8.6 C 6.96 g/m*3 8.6 C 0 km/h
456 26-03-2010 19:08:01 8.4 C 6.96 g/m*3 8.4 C 0 km/h
457 26-03-2010 19:20:02 8.4 C 7.04 g/m*3 8.4 C 0 km/h
458 26-03-2010 19:32:01 8.5 C 7.09 g/m*3 8.5 C 0 km/h
459 26-03-2010 19:44:01 8.4 C 7.04 g/m*3 8.4 C 0 km/h
460 26-03-2010 19:56:01 8.4 C 7.13 g/m*3 8.4 C 0 km/h
461 26-03-2010 20:08:01 8.5 C 7.09 g/m*3 8.5 C 0 km/h
462 26-03-2010 20:20:01 8.7 C 7.09 g/m*3 8.7 C 0 km/h
463 26-03-2010 20:32:02 8.7 C 6.92 g/m*3 8.7 C 0 km/h
464 26-03-2010 20:44:02 8.6 C 6.7 g/m*3 8.6 C 0 km/h
465 26-03-2010 20:56:02 8.4 C 6.53 g/m*3 8.4 C 0 km/h
466 26-03-2010 21:08:02 8.3 C 6.41 g/m*3 8.3 C 0 km/h
467 26-03-2010 21:20:01 8.5 C 6.15 g/m*3 8.5 C 0 km/h
468 26-03-2010 21:33:02 8.5 C 6.15 g/m*3 8.5 C 0 km/h
469 26-03-2010 21:45:03 8.3 C 6.15 g/m*3 8.3 C 0 km/h
470 26-03-2010 21:57:03 8.4 C 6.19 g/m*3 8.4 C 0 km/h
471 26-03-2010 22:09:03 8.3 C 6.32 g/m*3 8.3 C 0 km/h
472 26-03-2010 22:21:03 8.3 C 6.32 g/m*3 8.3 C 0 km/h
473 26-03-2010 22:33:03 8.2 C 6.36 g/m*3 8.2 C 0 km/h
474 26-03-2010 22:45:03 8.1 C 6.41 g/m*3 8.1 C 0 km/h
475 26-03-2010 22:57:03 7.8 C 6.37 g/m*3 7.8 C 0 km/h
Sensor: Nr:Datum:Temp:Abs-Feuchte:Windchill:Wind:
Aussen-T/F 476 26-03-2010 23:09:03 7.7 C 6.49 g/m*3 7.7 C 0 km/h
477 26-03-2010 23:21:03 7.8 C 6.53 g/m*3 7.8 C 0 km/h
478 26-03-2010 23:33:03 7.8 C 6.45 g/m*3 7.8 C 0 km/h
479 26-03-2010 23:45:03 7.6 C 6.44 g/m*3 7.6 C 0 km/h
480 26-03-2010 23:57:03 7.7 C 6.49 g/m*3 7.7 C 0 km/h
481 27-03-2010 00:09:03 7.7 C 6.41 g/m*3 7.7 C 0 km/h
482 27-03-2010 00:21:03 7.9 C 6.49 g/m*3 7.9 C 0 km/h
483 27-03-2010 00:33:03 7.9 C 6.49 g/m*3 7.9 C 0 km/h
484 27-03-2010 00:45:03 8 C 6.45 g/m*3 8 C 0 km/h
485 27-03-2010 00:57:03 8.2 C 6.45 g/m*3 8.2 C 0 km/h
486 27-03-2010 01:09:03 8.4 C 6.45 g/m*3 8.4 C 0 km/h
487 27-03-2010 01:21:03 8.4 C 6.36 g/m*3 8.4 C 0 km/h
488 27-03-2010 01:33:03 8.5 C 6.4 g/m*3 8.5 C 0 km/h
489 27-03-2010 01:45:03 8.5 C 6.23 g/m*3 8.5 C 0 km/h
490 27-03-2010 01:57:03 8.5 C 6.23 g/m*3 8.5 C 0 km/h
491 27-03-2010 02:09:03 8.5 C 6.06 g/m*3 8.5 C 0 km/h
492 27-03-2010 02:21:04 8.2 C 6.11 g/m*3 8.2 C 0 km/h
493 27-03-2010 02:33:04 8.1 C 5.99 g/m*3 8.1 C 0 km/h
494 27-03-2010 02:45:04 8 C 6.04 g/m*3 8 C 0 km/h
495 27-03-2010 02:57:04 8.3 C 6.15 g/m*3 8.3 C 0 km/h
496 27-03-2010 03:09:04 8.4 C 6.19 g/m*3 8.4 C 0 km/h
497 27-03-2010 03:21:04 8.1 C 6.07 g/m*3 8.1 C 0 km/h
498 27-03-2010 03:33:04 7.9 C 6.16 g/m*3 7.9 C 0 km/h
499 27-03-2010 03:45:04 8 C 6.2 g/m*3 8 C 0 km/h
500 27-03-2010 03:57:04 8.1 C 6.07 g/m*3 8.1 C 0 km/h
Sensor: Nr:Datum:Temp:Abs-Feuchte:Windchill:Wind:
Aussen-T/F 501 27-03-2010 04:09:04 8.1 C 6.07 g/m*3 8.1 C 0 km/h
502 27-03-2010 04:21:04 8.2 C 6.03 g/m*3 8.2 C 0 km/h
503 27-03-2010 04:33:04 8.2 C 6.03 g/m*3 8.2 C 0 km/h
504 27-03-2010 04:45:04 8.2 C 5.95 g/m*3 8.2 C 0 km/h
505 27-03-2010 04:57:04 8.2 C 5.95 g/m*3 8.2 C 0 km/h
506 27-03-2010 05:09:05 8.1 C 5.91 g/m*3 8.1 C 0 km/h
507 27-03-2010 05:21:05 8.1 C 5.99 g/m*3 8.1 C 0 km/h
508 27-03-2010 05:33:05 8.1 C 5.99 g/m*3 8.1 C 0 km/h
509 27-03-2010 05:45:05 8 C 5.95 g/m*3 8 C 0 km/h
510 27-03-2010 05:57:05 8 C 5.87 g/m*3 8 C 0 km/h
511 27-03-2010 06:09:05 8 C 5.79 g/m*3 8 C 0 km/h
512 27-03-2010 06:21:05 8 C 5.7 g/m*3 8 C 0 km/h
513 27-03-2010 06:33:02 8.1 C 5.74 g/m*3 8.1 C 0 km/h
514 27-03-2010 06:45:02 8.1 C 5.74 g/m*3 8.1 C 0 km/h
515 27-03-2010 06:57:02 8.2 C 5.69 g/m*3 8.2 C 0 km/h
516 27-03-2010 07:09:01 8.3 C 5.65 g/m*3 8.3 C 0 km/h
517 27-03-2010 07:21:02 8.4 C 5.68 g/m*3 8.4 C 0 km/h
518 27-03-2010 07:33:02 8.5 C 5.72 g/m*3 8.5 C 0 km/h
519 27-03-2010 07:45:02 8.5 C 5.64 g/m*3 8.5 C 0 km/h
520 27-03-2010 07:57:02 8.5 C 5.72 g/m*3 8.5 C 0 km/h
521 27-03-2010 08:09:02 8.5 C 5.72 g/m*3 8.5 C 0 km/h
522 27-03-2010 08:21:02 8.7 C 5.79 g/m*3 8.7 C 0 km/h
523 27-03-2010 08:33:02 8.9 C 5.69 g/m*3 8.9 C 0 km/h
524 27-03-2010 08:45:01 9.3 C 5.75 g/m*3 9.3 C 0 km/h
525 27-03-2010 08:57:01 9.6 C 5.68 g/m*3 9.6 C 0 km/h
Sensor: Nr:Datum:Temp:Abs-Feuchte:Windchill:Wind:
Aussen-T/F 526 27-03-2010 09:09:02 10 C 5.54 g/m*3 10 C 0 km/h
527 27-03-2010 09:21:01 9.8 C 5.57 g/m*3 9.8 C 0 km/h
528 27-03-2010 09:33:02 9.5 C 5.55 g/m*3 9.5 C 0 km/h
529 27-03-2010 09:45:02 9.7 C 5.62 g/m*3 9.7 C 0 km/h
530 27-03-2010 09:57:02 9.7 C 5.72 g/m*3 9.7 C 0 km/h
531 27-03-2010 10:09:02 9.7 C 5.62 g/m*3 9.7 C 0 km/h
532 27-03-2010 10:21:02 9.8 C 5.66 g/m*3 9.8 C 0 km/h
533 27-03-2010 10:33:02 10.1 C 5.2 g/m*3 10.1 C 0 km/h
534 27-03-2010 10:45:01 10.6 C 5.17 g/m*3 10.6 C 0 km/h
535 27-03-2010 10:57:01 11.1 C 5.14 g/m*3 11.1 C 0 km/h
536 27-03-2010 11:09:02 11.5 C 4.96 g/m*3 11.5 C 0 km/h
537 27-03-2010 11:21:01 11.3 C 4.79 g/m*3 11.3 C 0 km/h
538 27-03-2010 11:33:02 11.3 C 5 g/m*3 11.3 C 0 km/h
539 27-03-2010 11:45:02 11.7 C 4.92 g/m*3 11.7 C 0 km/h
540 27-03-2010 11:57:02 11.8 C 4.95 g/m*3 11.8 C 0 km/h
541 27-03-2010 12:09:02 11.9 C 4.87 g/m*3 11.9 C 0 km/h
542 27-03-2010 12:21:01 11.8 C 4.74 g/m*3 11.8 C 0 km/h
543 27-03-2010 12:33:02 11.9 C 4.98 g/m*3 11.9 C 0 km/h
544 27-03-2010 12:45:03 11.6 C 5.3 g/m*3 11.6 C 0 km/h
545 27-03-2010 12:57:03 10.8 C 5.73 g/m*3 10.8 C 0 km/h
546 27-03-2010 13:09:02 10.7 C 5.89 g/m*3 10.7 C 0 km/h
547 27-03-2010 13:21:02 11.4 C 5.85 g/m*3 11.4 C 0 km/h
548 27-03-2010 13:33:02 11.3 C 5.61 g/m*3 11.3 C 0 km/h
549 27-03-2010 13:45:02 11.4 C 5.34 g/m*3 11.4 C 0 km/h
550 27-03-2010 13:57:02 12 C 5.12 g/m*3 12 C 0 km/h
Sensor: Nr:Datum:Temp:Abs-Feuchte:Windchill:Wind:
Aussen-T/F 551 27-03-2010 14:09:02 11.8 C 5.16 g/m*3 11.8 C 0 km/h
552 27-03-2010 14:21:02 11.2 C 4.97 g/m*3 11.2 C 0 km/h
553 27-03-2010 14:33:01 11.1 C 5.04 g/m*3 11.1 C 0 km/h
554 27-03-2010 14:45:02 10.9 C 5.07 g/m*3 10.9 C 0 km/h
555 27-03-2010 14:57:03 11 C 5 g/m*3 11 C 0 km/h
556 27-03-2010 15:09:01 11.2 C 4.97 g/m*3 11.2 C 0 km/h
557 27-03-2010 15:21:01 11.2 C 4.87 g/m*3 11.2 C 0 km/h
558 27-03-2010 15:33:02 11.8 C 4.95 g/m*3 11.8 C 0 km/h
559 27-03-2010 15:45:02 12.5 C 4.84 g/m*3 12.5 C 0 km/h
560 27-03-2010 15:57:02 12.1 C 4.72 g/m*3 12.1 C 0 km/h
561 27-03-2010 16:09:02 11.2 C 4.87 g/m*3 11.2 C 0 km/h
562 27-03-2010 16:21:02 10.8 C 5.04 g/m*3 10.8 C 0 km/h
563 27-03-2010 16:33:02 10.8 C 5.04 g/m*3 10.8 C 0 km/h
564 27-03-2010 16:45:02 10.7 C 5.11 g/m*3 10.7 C 0 km/h
565 27-03-2010 16:57:02 10.7 C 5.11 g/m*3 10.7 C 0 km/h
566 27-03-2010 17:09:03 11 C 5.1 g/m*3 11 C 0 km/h
567 27-03-2010 17:21:02 11.6 C 5.09 g/m*3 11.6 C 0 km/h
568 27-03-2010 17:33:02 11.2 C 5.17 g/m*3 11.2 C 0 km/h
569 27-03-2010 17:45:01 11.3 C 5.2 g/m*3 11.3 C 0 km/h
570 27-03-2010 17:57:01 11.8 C 5.05 g/m*3 11.8 C 0 km/h
571 27-03-2010 18:09:02 11.4 C 5.13 g/m*3 11.4 C 0 km/h
572 27-03-2010 18:21:01 11.4 C 5.13 g/m*3 11.4 C 0 km/h
573 27-03-2010 18:33:01 11.3 C 5 g/m*3 11.3 C 0 km/h
574 27-03-2010 18:45:01 10.5 C 5.14 g/m*3 10.5 C 0 km/h
575 27-03-2010 18:57:01 10 C 5.17 g/m*3 10 C 0 km/h
Sensor: Nr:Datum:Temp:Abs-Feuchte:Windchill:Wind:
Aussen-T/F 576 27-03-2010 19:09:01 9.5 C 5.19 g/m*3 9.5 C 0 km/h
577 27-03-2010 19:21:02 9.2 C 5.27 g/m*3 9.2 C 0 km/h
578 27-03-2010 19:33:01 8.9 C 5.34 g/m*3 8.9 C 0 km/h
579 27-03-2010 19:45:02 8.7 C 5.45 g/m*3 8.7 C 0 km/h
580 27-03-2010 19:57:02 8.5 C 5.55 g/m*3 8.5 C 0 km/h
581 27-03-2010 20:09:02 8.3 C 5.56 g/m*3 8.3 C 0 km/h
582 27-03-2010 20:21:02 8.2 C 5.61 g/m*3 8.2 C 0 km/h
583 27-03-2010 20:33:01 7.9 C 5.67 g/m*3 7.9 C 0 km/h
584 27-03-2010 20:45:02 7.7 C 5.76 g/m*3 7.7 C 0 km/h
585 27-03-2010 20:57:02 7.5 C 5.76 g/m*3 7.5 C 0 km/h
586 27-03-2010 21:09:01 7.4 C 5.81 g/m*3 7.4 C 0 km/h
587 27-03-2010 21:21:01 7.4 C 5.96 g/m*3 7.4 C 0 km/h
588 27-03-2010 21:33:02 7.2 C 5.97 g/m*3 7.2 C 0 km/h
589 27-03-2010 21:45:02 7.2 C 6.04 g/m*3 7.2 C 0 km/h
590 27-03-2010 21:57:02 7.1 C 6.08 g/m*3 7.1 C 0 km/h
591 27-03-2010 22:09:02 7.2 C 6.12 g/m*3 7.2 C 0 km/h
592 27-03-2010 22:21:02 7.1 C 6.16 g/m*3 7.1 C 0 km/h
593 27-03-2010 22:33:02 7.2 C 6.2 g/m*3 7.2 C 0 km/h
594 27-03-2010 22:45:02 7.4 C 6.28 g/m*3 7.4 C 0 km/h
595 27-03-2010 22:57:02 7.4 C 6.2 g/m*3 7.4 C 0 km/h
596 27-03-2010 23:09:03 7.7 C 6.16 g/m*3 7.7 C 0 km/h
597 27-03-2010 23:21:02 7.8 C 6.04 g/m*3 7.8 C 0 km/h
598 27-03-2010 23:33:03 8 C 5.87 g/m*3 8 C 0 km/h
599 27-03-2010 23:45:02 7.7 C 6 g/m*3 7.7 C 0 km/h
600 27-03-2010 23:57:02 7.7 C 6 g/m*3 7.7 C 0 km/h
Sensor: Nr:Datum:Temp:Abs-Feuchte:Windchill:Wind:
Aussen-T/F 601 28-03-2010 00:09:02 7.7 C 6 g/m*3 7.7 C 0 km/h
602 28-03-2010 00:21:02 7.4 C 5.96 g/m*3 7.4 C 0 km/h
603 28-03-2010 00:33:02 7.5 C 6.08 g/m*3 7.5 C 0 km/h
604 28-03-2010 00:45:02 7.7 C 6.08 g/m*3 7.7 C 0 km/h
605 28-03-2010 00:57:02 7.7 C 6.08 g/m*3 7.7 C 0 km/h
606 28-03-2010 01:09:02 7.9 C 6.08 g/m*3 7.9 C 0 km/h
607 28-03-2010 01:21:02 8.2 C 5.95 g/m*3 8.2 C 0 km/h
608 28-03-2010 01:33:01 8.4 C 5.85 g/m*3 8.4 C 0 km/h
609 28-03-2010 01:45:02 8.4 C 5.85 g/m*3 8.4 C 0 km/h
610 28-03-2010 01:57:02 8.1 C 5.82 g/m*3 8.1 C 0 km/h
611 28-03-2010 02:09:01 7.9 C 5.91 g/m*3 7.9 C 0 km/h
612 28-03-2010 02:21:02 8.1 C 5.99 g/m*3 8.1 C 0 km/h
613 28-03-2010 02:33:01 8.4 C 6.02 g/m*3 8.4 C 0 km/h
614 28-03-2010 02:45:01 8.3 C 5.9 g/m*3 8.3 C 0 km/h
615 28-03-2010 02:57:01 8.2 C 5.95 g/m*3 8.2 C 0 km/h
616 28-03-2010 04:09:02 8.2 C 6.03 g/m*3 8.2 C 0 km/h
617 28-03-2010 04:21:01 8.1 C 5.99 g/m*3 8.1 C 0 km/h
618 28-03-2010 04:33:01 8.2 C 6.11 g/m*3 8.2 C 0 km/h
619 28-03-2010 04:45:01 8.2 C 6.11 g/m*3 8.2 C 0 km/h
620 28-03-2010 04:57:01 8.2 C 6.11 g/m*3 8.2 C 0 km/h
621 28-03-2010 05:09:01 8.2 C 6.03 g/m*3 8.2 C 0 km/h
622 28-03-2010 05:21:02 8.2 C 6.11 g/m*3 8.2 C 0 km/h
623 28-03-2010 05:33:01 8.1 C 6.24 g/m*3 8.1 C 0 km/h
624 28-03-2010 05:45:01 8.1 C 6.32 g/m*3 8.1 C 0 km/h
625 28-03-2010 05:57:01 8.1 C 6.32 g/m*3 8.1 C 0 km/h
Sensor: Nr:Datum:Temp:Abs-Feuchte:Windchill:Wind:
Aussen-T/F 626 28-03-2010 06:09:01 8.2 C 6.28 g/m*3 8.2 C 0 km/h
627 28-03-2010 06:21:02 8.4 C 6.36 g/m*3 8.4 C 0 km/h
628 28-03-2010 06:33:01 8.4 C 6.28 g/m*3 8.4 C 0 km/h
629 28-03-2010 06:45:02 8.4 C 6.36 g/m*3 8.4 C 0 km/h
630 28-03-2010 06:57:02 8.3 C 6.32 g/m*3 8.3 C 0 km/h
631 28-03-2010 07:09:01 8.2 C 6.28 g/m*3 8.2 C 0 km/h
632 28-03-2010 07:21:01 8.2 C 6.28 g/m*3 8.2 C 0 km/h
633 28-03-2010 07:33:01 8.2 C 6.11 g/m*3 8.2 C 0 km/h
634 28-03-2010 07:45:01 8.2 C 6.11 g/m*3 8.2 C 0 km/h
635 28-03-2010 07:57:02 8.3 C 6.15 g/m*3 8.3 C 0 km/h
636 28-03-2010 08:09:01 8.6 C 6.27 g/m*3 8.6 C 0 km/h
637 28-03-2010 08:21:01 8.7 C 6.23 g/m*3 8.7 C 0 km/h
638 28-03-2010 08:33:02 8.9 C 6.22 g/m*3 8.9 C 0 km/h
639 28-03-2010 08:45:01 9 C 6.08 g/m*3 9 C 0 km/h
640 28-03-2010 08:57:01 9.1 C 6.03 g/m*3 9.1 C 0 km/h
641 28-03-2010 09:09:02 9.1 C 5.94 g/m*3 9.1 C 0 km/h
642 28-03-2010 09:21:01 9.2 C 5.98 g/m*3 9.2 C 0 km/h
643 28-03-2010 09:33:02 9.8 C 5.94 g/m*3 9.8 C 0 km/h
644 28-03-2010 09:45:01 10.2 C 5.9 g/m*3 10.2 C 0 km/h
645 28-03-2010 09:57:01 10.4 C 5.88 g/m*3 10.4 C 0 km/h
646 28-03-2010 10:09:02 10.2 C 5.71 g/m*3 10.2 C 0 km/h
647 28-03-2010 10:21:01 10.1 C 5.77 g/m*3 10.1 C 0 km/h
648 28-03-2010 10:33:01 10.5 C 5.82 g/m*3 10.5 C 0 km/h
649 28-03-2010 10:45:01 10.7 C 5.8 g/m*3 10.7 C 0 km/h
650 28-03-2010 10:57:01 10.7 C 5.8 g/m*3 10.7 C 0 km/h
Sensor: Nr:Datum:Temp:Abs-Feuchte:Windchill:Wind:
Aussen-T/F 651 28-03-2010 11:09:01 11.2 C 5.47 g/m*3 11.2 C 0 km/h
652 28-03-2010 11:21:01 10.9 C 5.37 g/m*3 10.9 C 0 km/h
653 28-03-2010 11:33:01 10.9 C 5.57 g/m*3 10.9 C 0 km/h
654 28-03-2010 11:45:01 11.7 C 5.54 g/m*3 11.7 C 0 km/h
655 28-03-2010 11:57:01 11.3 C 5.41 g/m*3 11.3 C 0 km/h
656 28-03-2010 12:09:01 11 C 5.31 g/m*3 11 C 0 km/h
657 28-03-2010 12:21:02 10.8 C 5.63 g/m*3 10.8 C 0 km/h
658 28-03-2010 12:33:01 11.8 C 5.79 g/m*3 11.8 C 0 km/h
659 28-03-2010 12:45:02 12 C 5.44 g/m*3 12 C 0 km/h
660 28-03-2010 12:57:02 11.6 C 5.4 g/m*3 11.6 C 0 km/h
661 28-03-2010 13:09:01 11.6 C 5.51 g/m*3 11.6 C 0 km/h
662 28-03-2010 13:21:02 12.3 C 5.21 g/m*3 12.3 C 0 km/h
663 28-03-2010 13:33:01 11.9 C 5.3 g/m*3 11.9 C 0 km/h
664 28-03-2010 13:45:02 11.7 C 5.23 g/m*3 11.7 C 0 km/h
665 28-03-2010 13:57:02 11.5 C 5.37 g/m*3 11.5 C 0 km/h
666 28-03-2010 14:09:01 11.7 C 5.44 g/m*3 11.7 C 0 km/h
667 28-03-2010 14:21:01 12 C 5.22 g/m*3 12 C 0 km/h
668 28-03-2010 14:33:02 11.9 C 5.3 g/m*3 11.9 C 0 km/h
669 28-03-2010 14:45:01 10.2 C 6.19 g/m*3 10.2 C 0 km/h
670 28-03-2010 14:57:01 9.3 C 6.47 g/m*3 9.3 C 0 km/h
671 28-03-2010 15:09:01 10.1 C 6.81 g/m*3 10.1 C 0 km/h
672 28-03-2010 15:21:01 11.3 C 6.43 g/m*3 11.3 C 0 km/h
673 28-03-2010 15:33:02 11.7 C 6.48 g/m*3 11.7 C 0 km/h
674 28-03-2010 15:45:01 13.1 C 6.5 g/m*3 13.1 C 0 km/h
675 28-03-2010 15:57:01 13.7 C 6.16 g/m*3 13.7 C 0 km/h
Sensor: Nr:Datum:Temp:Abs-Feuchte:Windchill:Wind:
Aussen-T/F 676 28-03-2010 16:09:02 13.7 C 5.68 g/m*3 13.7 C 0 km/h
677 28-03-2010 16:21:01 13.4 C 4.88 g/m*3 13.4 C 0 km/h
678 28-03-2010 16:33:01 13.1 C 4.91 g/m*3 13.1 C 0 km/h
679 28-03-2010 16:45:01 12.6 C 5.09 g/m*3 12.6 C 0 km/h
680 28-03-2010 16:57:01 11 C 6.51 g/m*3 11 C 0 km/h
681 28-03-2010 17:09:02 11.1 C 7.15 g/m*3 11.1 C 0 km/h
682 28-03-2010 17:21:01 11.4 C 6.88 g/m*3 11.4 C 0 km/h
683 28-03-2010 17:33:01 11.6 C 6.86 g/m*3 11.6 C 0 km/h
684 28-03-2010 17:45:01 11.7 C 7.01 g/m*3 11.7 C 0 km/h
685 28-03-2010 17:57:01 11.7 C 6.07 g/m*3 11.7 C 0 km/h
686 28-03-2010 18:09:01 11.6 C 6.03 g/m*3 11.6 C 0 km/h
687 28-03-2010 18:21:02 11.5 C 5.78 g/m*3 11.5 C 0 km/h
688 28-03-2010 18:33:01 11.4 C 5.85 g/m*3 11.4 C 0 km/h
689 28-03-2010 18:45:01 11.3 C 5.92 g/m*3 11.3 C 0 km/h
690 28-03-2010 18:57:01 11.3 C 6.12 g/m*3 11.3 C 0 km/h
691 28-03-2010 19:09:01 11.2 C 6.08 g/m*3 11.2 C 0 km/h
692 28-03-2010 19:21:02 11.1 C 6.25 g/m*3 11.1 C 0 km/h
693 28-03-2010 19:33:01 10.9 C 6.37 g/m*3 10.9 C 0 km/h
694 28-03-2010 19:45:02 10.3 C 6.61 g/m*3 10.3 C 0 km/h
695 28-03-2010 19:57:02 10 C 6.77 g/m*3 10 C 0 km/h
696 28-03-2010 20:09:01 9.9 C 6.91 g/m*3 9.9 C 0 km/h
697 28-03-2010 20:21:01 9.8 C 6.96 g/m*3 9.8 C 0 km/h
698 28-03-2010 20:33:01 9.8 C 6.96 g/m*3 9.8 C 0 km/h
699 28-03-2010 20:45:01 9.9 C 6.91 g/m*3 9.9 C 0 km/h
700 28-03-2010 20:57:02 9.9 C 6.91 g/m*3 9.9 C 0 km/h
Sensor: Nr:Datum:Temp:Abs-Feuchte:Windchill:Wind:
Aussen-T/F 701 28-03-2010 21:09:01 9.9 C 6.91 g/m*3 9.9 C 0 km/h
702 28-03-2010 21:21:01 9.9 C 6.82 g/m*3 9.9 C 0 km/h
703 28-03-2010 21:33:02 9.9 C 6.82 g/m*3 9.9 C 0 km/h
704 28-03-2010 21:45:01 9.8 C 6.87 g/m*3 9.8 C 0 km/h
705 28-03-2010 21:57:01 9.8 C 6.87 g/m*3 9.8 C 0 km/h
706 28-03-2010 22:10:04 9.7 C 6.91 g/m*3 9.7 C 0 km/h
707 28-03-2010 22:22:04 9.6 C 6.78 g/m*3 9.6 C 0 km/h
708 28-03-2010 22:34:04 9.5 C 6.74 g/m*3 9.5 C 0 km/h
709 28-03-2010 22:46:04 9.4 C 6.87 g/m*3 9.4 C 0 km/h
710 28-03-2010 22:58:04 9.4 C 6.87 g/m*3 9.4 C 0 km/h
711 28-03-2010 23:10:04 9.5 C 6.92 g/m*3 9.5 C 0 km/h
712 28-03-2010 23:22:04 9.3 C 6.83 g/m*3 9.3 C 0 km/h
713 28-03-2010 23:34:04 9.4 C 6.96 g/m*3 9.4 C 0 km/h
714 28-03-2010 23:46:04 9.7 C 6.91 g/m*3 9.7 C 0 km/h
715 28-03-2010 23:58:04 9.8 C 6.87 g/m*3 9.8 C 0 km/h
716 29-03-2010 00:10:04 10 C 6.86 g/m*3 10 C 0 km/h
717 29-03-2010 00:22:04 10 C 6.77 g/m*3 10 C 0 km/h
718 29-03-2010 00:34:04 9.8 C 6.87 g/m*3 9.8 C 0 km/h
719 29-03-2010 00:46:04 9.8 C 6.87 g/m*3 9.8 C 0 km/h
720 29-03-2010 00:58:04 9.8 C 6.87 g/m*3 9.8 C 0 km/h
721 29-03-2010 01:10:04 9.8 C 7.05 g/m*3 9.8 C 0 km/h
722 29-03-2010 01:22:04 9.7 C 7.1 g/m*3 9.7 C 0 km/h
723 29-03-2010 01:34:04 9.6 C 7.15 g/m*3 9.6 C 0 km/h
724 29-03-2010 01:46:05 9.6 C 7.15 g/m*3 9.6 C 0 km/h
725 29-03-2010 01:58:05 9.6 C 7.24 g/m*3 9.6 C 0 km/h
Sensor: Nr:Datum:Temp:Abs-Feuchte:Windchill:Wind:
Aussen-T/F 726 29-03-2010 02:10:05 9.5 C 7.28 g/m*3 9.5 C 0 km/h
727 29-03-2010 02:22:05 9.3 C 7.28 g/m*3 9.3 C 0 km/h
728 29-03-2010 02:34:05 9.3 C 7.46 g/m*3 9.3 C 0 km/h
729 29-03-2010 02:46:05 9.3 C 7.55 g/m*3 9.3 C 0 km/h
730 29-03-2010 02:58:05 9.3 C 7.64 g/m*3 9.3 C 0 km/h
731 29-03-2010 03:10:05 9.3 C 7.73 g/m*3 9.3 C 0 km/h
732 29-03-2010 03:22:05 9.4 C 7.87 g/m*3 9.4 C 0 km/h
733 29-03-2010 03:34:05 10 C 7.99 g/m*3 10 C 0 km/h
734 29-03-2010 03:46:05 10.4 C 8.1 g/m*3 10.4 C 0 km/h
735 29-03-2010 03:58:05 10.6 C 8 g/m*3 10.6 C 0 km/h
736 29-03-2010 04:10:05 11 C 8.01 g/m*3 11 C 0 km/h
737 29-03-2010 04:22:05 11.1 C 7.96 g/m*3 11.1 C 0 km/h
738 29-03-2010 04:34:05 11.3 C 7.96 g/m*3 11.3 C 0 km/h
739 29-03-2010 04:46:05 11.5 C 7.95 g/m*3 11.5 C 0 km/h
740 29-03-2010 04:58:05 11.5 C 7.95 g/m*3 11.5 C 0 km/h
741 29-03-2010 05:10:05 11.5 C 7.95 g/m*3 11.5 C 0 km/h
742 29-03-2010 05:22:05 11.5 C 7.95 g/m*3 11.5 C 0 km/h
743 29-03-2010 05:34:05 11.5 C 8.06 g/m*3 11.5 C 0 km/h
744 29-03-2010 05:46:05 11.4 C 8.01 g/m*3 11.4 C 0 km/h
745 29-03-2010 05:58:05 11.5 C 8.06 g/m*3 11.5 C 0 km/h
746 29-03-2010 06:10:05 11.5 C 8.06 g/m*3 11.5 C 0 km/h
747 29-03-2010 06:22:06 11.5 C 8.06 g/m*3 11.5 C 0 km/h
748 29-03-2010 06:34:06 11.5 C 7.95 g/m*3 11.5 C 0 km/h
749 29-03-2010 06:46:01 11.4 C 7.9 g/m*3 11.4 C 0 km/h
750 29-03-2010 06:58:01 11.4 C 8.11 g/m*3 11.4 C 0 km/h
Sensor: Nr:Datum:Temp:Abs-Feuchte:Windchill:Wind:
Aussen-T/F 751 29-03-2010 07:10:02 11.2 C 8.11 g/m*3 11.2 C 0 km/h
752 29-03-2010 07:22:02 10.9 C 8.26 g/m*3 10.9 C 0 km/h
753 29-03-2010 07:34:02 10.7 C 8.35 g/m*3 10.7 C 0 km/h
754 29-03-2010 07:46:02 10.6 C 8.49 g/m*3 10.6 C 0 km/h
755 29-03-2010 07:58:02 10.6 C 8.59 g/m*3 10.6 C 0 km/h
756 29-03-2010 08:10:02 10.7 C 8.55 g/m*3 10.7 C 0 km/h
757 29-03-2010 08:22:01 10.8 C 8.5 g/m*3 10.8 C 0 km/h
758 29-03-2010 08:34:02 11.2 C 8.41 g/m*3 11.2 C 0 km/h
759 29-03-2010 08:46:02 11.4 C 8.11 g/m*3 11.4 C 0 km/h
760 29-03-2010 08:58:02 11.6 C 8 g/m*3 11.6 C 0 km/h
761 29-03-2010 09:10:02 11.8 C 7.89 g/m*3 11.8 C 0 km/h
762 29-03-2010 09:22:01 11.9 C 7.84 g/m*3 11.9 C 0 km/h
763 29-03-2010 09:34:02 12 C 7.78 g/m*3 12 C 0 km/h
764 29-03-2010 09:46:01 12.1 C 7.72 g/m*3 12.1 C 0 km/h
765 29-03-2010 09:58:01 12.2 C 7.77 g/m*3 12.2 C 0 km/h
766 29-03-2010 10:10:02 12.4 C 7.87 g/m*3 12.4 C 0 km/h
767 29-03-2010 10:22:02 12.6 C 7.85 g/m*3 12.6 C 0 km/h
768 29-03-2010 10:34:02 12.7 C 7.9 g/m*3 12.7 C 0 km/h
769 29-03-2010 10:46:02 12.5 C 7.7 g/m*3 12.5 C 0 km/h
770 29-03-2010 10:58:02 13 C 7.83 g/m*3 13 C 0 km/h
771 29-03-2010 11:10:02 13.1 C 7.87 g/m*3 13.1 C 0 km/h
772 29-03-2010 11:22:02 13.3 C 7.86 g/m*3 13.3 C 0 km/h
773 29-03-2010 11:34:01 13.5 C 7.84 g/m*3 13.5 C 0 km/h
774 29-03-2010 11:46:02 13.9 C 7.91 g/m*3 13.9 C 0 km/h
775 29-03-2010 11:58:02 14 C 7.72 g/m*3 14 C 0 km/h
Sensor: Nr:Datum:Temp:Abs-Feuchte:Windchill:Wind:
Aussen-T/F 776 29-03-2010 12:10:01 14.4 C 7.66 g/m*3 14.4 C 0 km/h
777 29-03-2010 12:22:02 15 C 7.57 g/m*3 15 C 0 km/h
778 29-03-2010 12:34:01 15.3 C 7.44 g/m*3 15.3 C 0 km/h
779 29-03-2010 12:46:02 14.9 C 7.52 g/m*3 14.9 C 0 km/h
780 29-03-2010 12:58:02 14.9 C 7.39 g/m*3 14.9 C 0 km/h
781 29-03-2010 13:10:02 15.3 C 7.18 g/m*3 15.3 C 0 km/h
782 29-03-2010 13:22:02 14.8 C 7.09 g/m*3 14.8 C 0 km/h
783 29-03-2010 13:34:03 14.6 C 7.38 g/m*3 14.6 C 0 km/h
784 29-03-2010 13:46:02 14.4 C 7.54 g/m*3 14.4 C 0 km/h
785 29-03-2010 13:58:02 13.8 C 8.1 g/m*3 13.8 C 0 km/h
786 29-03-2010 14:10:01 14.2 C 8.91 g/m*3 14.2 C 0 km/h
787 29-03-2010 14:22:02 14.7 C 8.69 g/m*3 14.7 C 0 km/h
788 29-03-2010 14:34:02 14.2 C 7.82 g/m*3 14.2 C 0 km/h
789 29-03-2010 14:46:02 13.1 C 8.33 g/m*3 13.1 C 0 km/h
790 29-03-2010 14:58:02 12.7 C 8.13 g/m*3 12.7 C 0 km/h
791 29-03-2010 15:10:02 13.2 C 8.38 g/m*3 13.2 C 0 km/h
792 29-03-2010 15:22:02 12.8 C 8.4 g/m*3 12.8 C 0 km/h
793 29-03-2010 15:34:02 12.8 C 8.62 g/m*3 12.8 C 0 km/h
794 29-03-2010 15:46:02 12.7 C 8.68 g/m*3 12.7 C 0 km/h
795 29-03-2010 15:58:02 13.4 C 8.6 g/m*3 13.4 C 0 km/h
796 29-03-2010 16:10:02 14 C 8.2 g/m*3 14 C 0 km/h
797 29-03-2010 16:22:02 14.2 C 7.69 g/m*3 14.2 C 0 km/h
798 29-03-2010 16:34:02 14.3 C 7.62 g/m*3 14.3 C 0 km/h
799 29-03-2010 16:46:02 14 C 7.96 g/m*3 14 C 0 km/h
800 29-03-2010 16:58:02 13.8 C 8.22 g/m*3 13.8 C 0 km/h
Sensor: Nr:Datum:Temp:Abs-Feuchte:Windchill:Wind:
Aussen-T/F 801 29-03-2010 17:10:02 12.2 C 8.31 g/m*3 12.2 C 0 km/h
802 29-03-2010 17:22:03 12.2 C 8.96 g/m*3 12.2 C 0 km/h
803 29-03-2010 17:34:02 12.6 C 9.4 g/m*3 12.6 C 0 km/h
804 29-03-2010 17:46:02 14.2 C 10.14 g/m*3 14.2 C 0 km/h
805 29-03-2010 17:58:02 14.5 C 9.45 g/m*3 14.5 C 0 km/h
806 29-03-2010 18:10:02 14.7 C 9.44 g/m*3 14.7 C 0 km/h
807 29-03-2010 18:22:02 14.9 C 8.92 g/m*3 14.9 C 0 km/h
808 29-03-2010 18:34:02 14.8 C 8.87 g/m*3 14.8 C 0 km/h
809 29-03-2010 18:46:02 14.5 C 8.83 g/m*3 14.5 C 0 km/h
810 29-03-2010 18:58:02 14.4 C 9.02 g/m*3 14.4 C 0 km/h
811 29-03-2010 19:10:01 14.2 C 8.91 g/m*3 14.2 C 0 km/h
812 29-03-2010 19:22:02 13.7 C 8.76 g/m*3 13.7 C 0 km/h
813 29-03-2010 19:34:01 13 C 8.73 g/m*3 13 C 0 km/h
814 29-03-2010 19:46:02 12.2 C 8.52 g/m*3 12.2 C 0 km/h
815 29-03-2010 19:58:02 11.7 C 8.37 g/m*3 11.7 C 0 km/h
816 29-03-2010 20:10:01 11.2 C 8.21 g/m*3 11.2 C 0 km/h
817 29-03-2010 20:22:01 10.8 C 8.2 g/m*3 10.8 C 0 km/h
818 29-03-2010 20:34:02 10.6 C 8.2 g/m*3 10.6 C 0 km/h
819 29-03-2010 20:46:02 10.5 C 8.15 g/m*3 10.5 C 0 km/h
820 29-03-2010 20:58:02 10.4 C 8.1 g/m*3 10.4 C 0 km/h
821 29-03-2010 21:10:01 10.3 C 8.04 g/m*3 10.3 C 0 km/h
822 29-03-2010 21:22:02 10.2 C 7.99 g/m*3 10.2 C 0 km/h
823 29-03-2010 21:34:02 10.3 C 8.04 g/m*3 10.3 C 0 km/h
824 29-03-2010 21:47:02 10.3 C 8.04 g/m*3 10.3 C 0 km/h
825 29-03-2010 21:59:02 10.2 C 7.99 g/m*3 10.2 C 0 km/h
Sensor: Nr:Datum:Temp:Abs-Feuchte:Windchill:Wind:
Aussen-T/F 826 29-03-2010 22:11:02 10 C 7.89 g/m*3 10 C 0 km/h
827 29-03-2010 22:23:03 10 C 7.89 g/m*3 10 C 0 km/h
828 29-03-2010 22:35:03 9.9 C 7.94 g/m*3 9.9 C 0 km/h
829 29-03-2010 22:47:03 9.8 C 7.89 g/m*3 9.8 C 0 km/h
830 29-03-2010 22:59:03 9.9 C 8.03 g/m*3 9.9 C 0 km/h
831 29-03-2010 23:11:03 9.9 C 7.94 g/m*3 9.9 C 0 km/h
832 29-03-2010 23:23:03 9.9 C 7.94 g/m*3 9.9 C 0 km/h
833 29-03-2010 23:35:03 10.1 C 7.85 g/m*3 10.1 C 0 km/h
834 29-03-2010 23:47:03 10.1 C 7.66 g/m*3 10.1 C 0 km/h
835 29-03-2010 23:59:03 10.2 C 7.71 g/m*3 10.2 C 0 km/h

Legende:
   Min
   Max


Maximal/Minimal-Werte vom 23.02.2003 - 30.09.2020

Sensor Min Max Avg
Temp
(Aussen-T/F)
-16.4 °C
20-12-2009  01:30:01
40.4 °C
25-07-2019  16:20:00
11.32 °C

Die Daten stammen von einer Davis Vantage Pro 2 Wetter-Station und werden unter Linux mit der Software wview2wettercgi und aufbereitet. Alle Angaben erfolgen ohne Gewähr für ihre Vollständigkeit oder Richtigkeit.
Kontakt: Rainer Krienke krienke@uni-koblenz.de . Meine Webseiten an der Uni Koblenz oder privat.
Version: $Revision: 0.78 $